Weather History for KE11 - September, 2014

Change the Weather History Date:

Thursday, September 4, 2014

  Actual Average (KMAF) Record (KMAF)
Temperature  
Mean Temperature 78 °F 78 °F  
Max Temperature 89 °F 90 °F 101 °F (2000)
Min Temperature 67 °F 66 °F 51 °F (1984)
Degree Days  
Heating Degree Days 0 0  
Month to date heating degree days 0  
Since 1 July heating degree days 0  
Cooling Degree Days 13 13  
Month to date cooling degree days 54  
Year to date cooling degree days 1938  
Growing Degree Days 28 (Base 50)    
Moisture  
Dew Point 60 °F    
Average Humidity 58    
Maximum Humidity 85    
Minimum Humidity 34    
Precipitation  
Precipitation 0.00 in 0.07 in 3.29 in (1986)
Month to date precipitation 0.26  
Year to date precipitation 9.98  
Sea Level Pressure  
Sea Level Pressure 30.02 in    
Wind  
Wind Speed 16 mph (South)    
Max Wind Speed 25 mph    
Max Gust Speed 36 mph    
Visibility 10 miles    
Events      
T = Trace of Precipitation, MM = Missing Value Source: NWS Daily Summary

Daily Weather History Graph

Daily Weather History Graph

Search for Another Location

Airport or City:

Trip Planner

Search our weather history database for the weather conditions in past years. The results will help you decide how hot, cold, wet, or windy it might be!

Date:

Astronomy

Sep. 04, 2014 Rise Set
Actual Time 7:27 AM CDT 8:10 PM CDT
Civil Twilight 7:02 AM CDT 8:35 PM CDT
Nautical Twilight 6:32 AM CDT 9:04 PM CDT
Astronomical Twilight 6:02 AM CDT 9:34 PM CDT
Moon 4:40 PM CDT (9/4) 2:30 AM CDT (9/4)
Length of Visible Light 13h 33m
Length of Day
12h 43m
Waxing Gibbous, 74% of the Moon is Illuminated
Sep 4
Waxing Gibbous
Sep 8
Full
Sep 15
Last Quarter
Sep 24
New
Oct 1
First Quarter

Hourly Weather History & Observations

Time (CDT) Temp. Heat Index Dew Point Humidity Pressure Visibility Wind Dir Wind Speed Gust Speed Precip Events Conditions
12:15 AM 75.2 °F - 61.7 °F 63% 30.01 in 10.0 mi SSE 17.3 mph 25.3 mph N/A   Clear
12:35 AM 74.1 °F - 61.7 °F 65% 30.01 in 10.0 mi South 16.1 mph 19.6 mph N/A   Clear
12:55 AM 73.4 °F - 61.7 °F 67% 30.01 in 10.0 mi South 16.1 mph 20.7 mph N/A   Clear
1:15 AM 73.0 °F - 61.9 °F 68% 30.01 in 10.0 mi South 16.1 mph 21.9 mph N/A   Clear
1:35 AM 72.9 °F - 61.9 °F 68% 30.00 in 10.0 mi South 17.3 mph 25.3 mph N/A   Clear
1:55 AM 72.3 °F - 61.7 °F 69% 30.00 in 10.0 mi South 12.7 mph 20.7 mph N/A   Clear
2:15 AM 72.0 °F - 61.9 °F 70% 29.99 in 10.0 mi South 15.0 mph 23.0 mph N/A   Clear
2:35 AM 71.8 °F - 61.9 °F 71% 29.98 in 10.0 mi South 15.0 mph 25.3 mph N/A   Clear
2:55 AM 71.2 °F - 62.2 °F 73% 29.98 in 10.0 mi South 18.4 mph 25.3 mph N/A   Clear
3:15 AM 70.9 °F - 62.6 °F 75% 29.98 in 10.0 mi South 18.4 mph 23.0 mph N/A   Clear
3:35 AM 70.7 °F - 63.0 °F 76% 29.98 in 10.0 mi South 15.0 mph 23.0 mph N/A   Clear
3:55 AM 70.5 °F - 63.0 °F 77% 29.99 in 10.0 mi South 16.1 mph 25.3 mph N/A   Clear
4:15 AM 70.2 °F - 63.3 °F 79% 29.99 in 10.0 mi South 11.5 mph 19.6 mph N/A   Clear
4:35 AM 69.6 °F - 63.5 °F 81% 29.99 in 10.0 mi South 11.5 mph 17.3 mph N/A   Clear
4:55 AM 69.1 °F - 63.5 °F 82% 29.99 in 10.0 mi South 9.2 mph - N/A   Clear
5:15 AM 68.9 °F - 63.0 °F 81% 29.99 in 10.0 mi South 9.2 mph - N/A   Clear
5:35 AM 68.9 °F - 62.8 °F 81% 30.00 in 10.0 mi South 11.5 mph - N/A   Clear
5:55 AM 68.5 °F - 62.6 °F 81% 30.01 in 10.0 mi South 6.9 mph - N/A   Clear
6:15 AM 68.2 °F - 62.8 °F 83% 30.01 in 10.0 mi South 5.8 mph - N/A   Clear
6:35 AM 68.0 °F - 63.0 °F 84% 30.01 in 10.0 mi SSE 8.1 mph - N/A   Clear
6:55 AM 68.0 °F - 63.0 °F 84% 30.02 in 10.0 mi South 8.1 mph - N/A   Clear
7:15 AM 67.5 °F - 63.0 °F 85% 30.02 in 10.0 mi South 6.9 mph - N/A   Scattered Clouds
7:35 AM 68.0 °F - 63.1 °F 84% 30.03 in 10.0 mi South 8.1 mph - N/A   Mostly Cloudy
7:55 AM 68.9 °F - 63.1 °F 82% 30.03 in 10.0 mi South 8.1 mph - N/A   Overcast
8:15 AM 69.3 °F - 63.1 °F 81% 30.04 in 10.0 mi South 15.0 mph 19.6 mph N/A   Overcast
8:35 AM 69.8 °F - 63.3 °F 80% 30.05 in 10.0 mi South 11.5 mph 25.3 mph N/A   Overcast
8:55 AM 70.3 °F - 63.1 °F 78% 30.05 in 10.0 mi South 15.0 mph 21.9 mph N/A   Overcast
9:15 AM 71.2 °F - 63.1 °F 75% 30.05 in 10.0 mi South 15.0 mph 21.9 mph N/A   Overcast
9:35 AM 72.7 °F - 63.3 °F 72% 30.05 in 10.0 mi South 12.7 mph 23.0 mph N/A   Overcast
9:55 AM 73.9 °F - 63.1 °F 69% 30.06 in 10.0 mi South 15.0 mph 23.0 mph N/A   Mostly Cloudy
10:15 AM 75.9 °F - 63.0 °F 64% 30.06 in 10.0 mi South 18.4 mph 21.9 mph N/A   Scattered Clouds
10:35 AM 76.8 °F - 61.9 °F 60% 30.06 in 10.0 mi South 19.6 mph 27.6 mph N/A   Scattered Clouds
10:55 AM 78.6 °F - 62.1 °F 57% 30.07 in 10.0 mi South 18.4 mph 24.2 mph N/A   Clear
11:15 AM 78.4 °F - 62.2 °F 57% 30.07 in 10.0 mi South 18.4 mph 24.2 mph N/A   Clear
11:35 AM 81.7 °F 82.3 °F 60.8 °F 49% 30.06 in 10.0 mi South 21.9 mph 28.8 mph N/A   Clear
11:55 AM 82.6 °F 82.8 °F 59.9 °F 46% 30.06 in 10.0 mi South 13.8 mph 29.9 mph N/A   Clear
12:15 PM 83.5 °F 83.6 °F 60.3 °F 45% 30.06 in 10.0 mi South 19.6 mph 27.6 mph N/A   Clear
12:35 PM 84.2 °F 84.4 °F 60.6 °F 45% 30.06 in 10.0 mi South 19.6 mph 27.6 mph N/A   Clear
12:55 PM 84.7 °F 84.8 °F 60.6 °F 44% 30.05 in 10.0 mi South 17.3 mph 29.9 mph N/A   Clear
1:15 PM 84.7 °F 84.8 °F 60.8 °F 44% 30.05 in 10.0 mi South 23.0 mph 31.1 mph N/A   Clear
1:35 PM 84.6 °F 84.4 °F 59.7 °F 43% 30.04 in 10.0 mi South 17.3 mph 26.5 mph N/A   Clear
1:55 PM 86.4 °F 85.6 °F 59.0 °F 39% 30.03 in 10.0 mi South 21.9 mph 31.1 mph N/A   Clear
2:15 PM 88.2 °F 87.1 °F 58.1 °F 36% 30.03 in 10.0 mi South 23.0 mph 31.1 mph N/A   Clear
2:35 PM 86.4 °F 85.2 °F 57.2 °F 37% 30.03 in 10.0 mi South 19.6 mph 28.8 mph N/A   Scattered Clouds
2:55 PM 87.8 °F 86.5 °F 57.0 °F 35% 30.03 in 10.0 mi South 21.9 mph 32.2 mph N/A   Scattered Clouds
3:15 PM 88.2 °F 86.9 °F 57.2 °F 35% 30.02 in 7.0 mi South 24.2 mph 35.7 mph N/A   Mostly Cloudy
3:35 PM 88.2 °F 86.7 °F 56.1 °F 34% 30.01 in 10.0 mi South 23.0 mph 29.9 mph N/A   Mostly Cloudy
3:55 PM 88.2 °F 86.7 °F 56.8 °F 34% 30.00 in 10.0 mi South 20.7 mph 32.2 mph N/A   Scattered Clouds
4:15 PM 87.8 °F 86.7 °F 57.7 °F 36% 29.98 in 10.0 mi SSE 20.7 mph 29.9 mph N/A   Clear
4:35 PM 89.4 °F 88.4 °F 58.5 °F 35% 29.98 in 10.0 mi South 24.2 mph 32.2 mph N/A   Scattered Clouds
4:55 PM 88.5 °F 87.8 °F 59.0 °F 37% 29.98 in 10.0 mi South 18.4 mph 29.9 mph N/A   Scattered Clouds
5:15 PM 87.8 °F 87.4 °F 59.7 °F 39% 29.98 in 10.0 mi South 21.9 mph 28.8 mph N/A   Scattered Clouds
5:35 PM 85.5 °F 85.2 °F 59.7 °F 42% 29.99 in 10.0 mi SSE 23.0 mph 32.2 mph N/A   Scattered Clouds
5:55 PM 85.3 °F 84.6 °F 58.3 °F 40% 29.99 in 10.0 mi South 19.6 mph 28.8 mph N/A   Scattered Clouds
6:15 PM 84.6 °F 83.7 °F 57.2 °F 39% 30.00 in 10.0 mi South 23.0 mph 31.1 mph N/A   Clear
6:35 PM 83.3 °F 82.5 °F 55.9 °F 39% 30.01 in 10.0 mi SSE 25.3 mph 33.4 mph N/A   Clear
6:55 PM 82.9 °F 82.3 °F 56.3 °F 40% 30.01 in 10.0 mi South 20.7 mph 28.8 mph N/A   Clear
7:15 PM 82.2 °F 82.0 °F 57.9 °F 43% 30.00 in 10.0 mi South 20.7 mph 28.8 mph N/A   Clear
7:35 PM 81.9 °F - 52.2 °F 36% 30.00 in 10.0 mi South 20.7 mph 31.1 mph N/A   Clear
7:55 PM 81.5 °F - 52.0 °F 36% 30.01 in 10.0 mi South 20.7 mph 24.2 mph N/A   Clear
8:15 PM 80.4 °F - 52.9 °F 38% 30.01 in 10.0 mi SSE 20.7 mph 26.5 mph N/A   Clear
8:35 PM 79.9 °F - 54.0 °F 41% 30.01 in 10.0 mi South 16.1 mph 24.2 mph N/A   Clear
8:55 PM 79.7 °F - 56.5 °F 45% 30.02 in 10.0 mi South 16.1 mph 23.0 mph N/A   Clear
9:15 PM 79.2 °F - 57.2 °F 47% 30.03 in 10.0 mi South 11.5 mph 18.4 mph N/A   Clear
9:35 PM 79.0 °F - 57.4 °F 47% 30.03 in 10.0 mi South 16.1 mph 20.7 mph N/A   Clear
10:15 PM 77.9 °F - 59.5 °F 53% 30.05 in 10.0 mi South 13.8 mph 20.7 mph N/A   Clear
10:35 PM 77.4 °F - 60.1 °F 55% 30.05 in 10.0 mi SSE 12.7 mph 18.4 mph N/A   Clear
10:55 PM 77.4 °F - 57.7 °F 51% 30.07 in 10.0 mi South 16.1 mph 26.5 mph N/A   Clear
11:15 PM 76.8 °F - 57.7 °F 52% 30.07 in 10.0 mi SSE 13.8 mph 23.0 mph N/A   Clear
11:35 PM 76.6 °F - 57.7 °F 52% 30.07 in 10.0 mi SSE 16.1 mph 21.9 mph N/A   Clear
11:55 PM 76.3 °F - 58.6 °F 54% 30.07 in 10.0 mi SSE 16.1 mph 21.9 mph N/A   Clear